"datetime","temp","dp","rain_mm","uv","solar","mb","wind_mph","gust_mph","windchill","rh"
"2019-05-04 00:00:00",6.9,5.4,0.0,0.0,0,1013.4,0,0,"",90
"2019-05-04 00:01:00",6.9,5.4,0.0,0.0,0,1013.4,0,0,"",90
"2019-05-04 00:02:00",6.9,5.4,0.0,0.0,0,1013.3,3,5,5.4,90
"2019-05-04 00:03:00",6.8,5.3,0.0,0.0,0,1013.3,2,4,5.7,90
"2019-05-04 00:04:00",6.8,5.3,0.0,0.0,0,1013.4,0,2,"",90
"2019-05-04 00:05:00",6.8,5.3,0.0,0.0,0,1013.4,0,0,"",90
"2019-05-04 00:06:00",6.8,5.3,0.0,0.0,0,1013.4,0,0,"",90
"2019-05-04 00:07:00",6.8,5.3,0.0,0.0,0,1013.4,0,0,"",90
"2019-05-04 00:08:00",6.8,5.3,0.0,0.0,0,1013.4,0,0,"",90
"2019-05-04 00:09:00",6.8,5.3,0.0,0.0,0,1013.4,0,0,"",90
"2019-05-04 00:10:00",6.8,5.3,0.0,0.0,0,1013.4,0,0,"",90
"2019-05-04 00:11:00",6.8,5.3,0.0,0.0,0,1013.3,0,0,"",90
"2019-05-04 00:12:00",6.8,5.3,0.0,0.0,0,1013.4,0,1,"",90
"2019-05-04 00:13:00",6.8,5.3,0.0,0.0,0,1013.4,0,1,"",90
"2019-05-04 00:14:00",6.7,5.2,0.0,0.0,0,1013.4,2,5,5.1,90
"2019-05-04 00:15:00",6.7,5.0,0.0,0.0,0,1013.4,2,3,"",89
"2019-05-04 00:16:00",6.7,5.2,0.0,0.0,0,1013.4,1,3,"",90
"2019-05-04 00:17:00",6.8,5.3,0.0,0.0,0,1013.4,0,1,"",90
"2019-05-04 00:18:00",6.8,5.3,0.0,0.0,0,1013.4,0,0,"",90
"2019-05-04 00:19:00",6.8,5.3,0.0,0.0,0,1013.4,0,0,"",90
"2019-05-04 00:20:00",6.8,5.3,0.0,0.0,0,1013.4,0,0,"",90
"2019-05-04 00:21:00",6.8,5.3,0.0,0.0,0,1013.3,0,2,"",90
"2019-05-04 00:22:00",6.8,5.3,0.0,0.0,0,1013.3,2,3,"",90
"2019-05-04 00:23:00",6.8,5.3,0.0,0.0,0,1013.3,1,3,"",90
"2019-05-04 00:24:00",6.8,5.1,0.0,0.0,0,1013.2,2,3,"",89
"2019-05-04 00:25:00",6.8,5.1,0.0,0.0,0,1013.2,1,3,"",89
"2019-05-04 00:26:00",6.8,5.1,0.0,0.0,0,1013.1,2,2,"",89
"2019-05-04 00:27:00",6.8,5.1,0.0,0.0,0,1013.2,2,3,"",89
"2019-05-04 00:28:00",6.8,5.1,0.0,0.0,0,1013.2,2,3,"",89
"2019-05-04 00:29:00",6.8,5.1,0.0,0.0,0,1013.1,2,3,"",89
"2019-05-04 00:30:00",6.8,5.1,0.0,0.0,0,1013.2,2,3,"",89
"2019-05-04 00:31:00",6.8,5.3,0.0,0.0,0,1013.1,1,2,"",90
"2019-05-04 00:32:00",6.8,5.3,0.0,0.0,0,1013.1,2,3,"",90
"2019-05-04 00:33:00",6.8,5.1,0.0,0.0,0,1013.2,1,2,"",89
"2019-05-04 00:34:00",6.8,5.3,0.0,0.0,0,1013.1,0,1,"",90
"2019-05-04 00:35:00",6.8,5.1,0.0,0.0,0,1013.1,1,5,5.2,89
"2019-05-04 00:36:00",6.7,5.0,0.0,0.0,0,1013.1,0,1,"",89
"2019-05-04 00:37:00",6.7,5.0,0.0,0.0,0,1013.1,0,0,"",89
"2019-05-04 00:38:00",6.7,4.9,0.0,0.0,0,1013.1,0,0,"",88
"2019-05-04 00:39:00",6.7,5.0,0.0,0.0,0,1013.2,0,0,"",89
"2019-05-04 00:40:00",6.7,4.9,0.0,0.0,0,1013.2,2,5,5.1,88
"2019-05-04 00:41:00",6.7,4.9,0.0,0.0,0,1013.2,0,2,"",88
"2019-05-04 00:42:00",6.7,4.9,0.0,0.0,0,1013.2,1,1,"",88
"2019-05-04 00:43:00",6.7,4.9,0.0,0.0,0,1013.3,3,4,5.5,88
"2019-05-04 00:44:00",6.7,4.7,0.0,0.0,0,1013.3,1,3,"",87
"2019-05-04 00:45:00",6.7,4.7,0.0,0.0,0,1013.3,3,5,5.1,87
"2019-05-04 00:46:00",6.7,4.7,0.0,0.0,0,1013.3,3,5,5.1,87
"2019-05-04 00:47:00",6.7,4.7,0.0,0.0,0,1013.3,1,2,"",87
"2019-05-04 00:48:00",6.7,4.5,0.0,0.0,0,1013.3,0,0,"",86
"2019-05-04 00:49:00",6.7,4.5,0.0,0.0,0,1013.3,0,0,"",86
"2019-05-04 00:50:00",6.7,4.5,0.0,0.0,0,1013.4,0,0,"",86
"2019-05-04 00:51:00",6.7,4.7,0.0,0.0,0,1013.4,0,0,"",87
"2019-05-04 00:52:00",6.7,4.7,0.0,0.0,0,1013.4,0,0,"",87
"2019-05-04 00:53:00",6.7,4.7,0.0,0.0,0,1013.4,0,1,"",87
"2019-05-04 00:54:00",6.7,4.9,0.0,0.0,0,1013.4,0,0,"",88
"2019-05-04 00:55:00",6.7,4.9,0.0,0.0,0,1013.4,0,0,"",88
"2019-05-04 00:56:00",6.6,4.8,0.0,0.0,0,1013.4,0,0,"",88
"2019-05-04 00:57:00",6.6,4.8,0.0,0.0,0,1013.4,0,0,"",88
"2019-05-04 00:58:00",6.6,4.8,0.0,0.0,0,1013.4,0,0,"",88
"2019-05-04 00:59:00",6.6,4.8,0.0,0.0,0,1013.5,0,1,"",88
"2019-05-04 01:00:00",6.6,4.8,0.0,0.0,0,1013.5,0,1,"",88
"2019-05-04 01:01:00",6.6,4.9,0.0,0.0,0,1013.4,0,1,"",89
"2019-05-04 01:02:00",6.6,4.8,0.0,0.0,0,1013.5,0,0,"",88
"2019-05-04 01:03:00",6.6,4.9,0.0,0.0,0,1013.5,0,0,"",89
"2019-05-04 01:04:00",6.6,4.8,0.0,0.0,0,1013.5,0,2,"",88
"2019-05-04 01:05:00",6.6,4.8,0.0,0.0,0,1013.4,1,2,"",88
"2019-05-04 01:06:00",6.6,4.8,0.0,0.0,0,1013.5,1,2,"",88
"2019-05-04 01:07:00",6.7,4.9,0.0,0.0,0,1013.5,1,2,"",88
"2019-05-04 01:08:00",6.6,4.8,0.0,0.0,0,1013.5,0,1,"",88
"2019-05-04 01:09:00",6.7,4.9,0.0,0.0,0,1013.5,0,1,"",88
"2019-05-04 01:10:00",6.7,4.9,0.0,0.0,0,1013.4,0,1,"",88
"2019-05-04 01:11:00",6.7,4.9,0.0,0.0,0,1013.5,1,2,"",88
"2019-05-04 01:12:00",6.7,4.9,0.0,0.0,0,1013.5,0,0,"",88
"2019-05-04 01:13:00",6.7,4.9,0.0,0.0,0,1013.5,1,2,"",88
"2019-05-04 01:14:00",6.7,4.7,0.0,0.0,0,1013.4,1,2,"",87
"2019-05-04 01:15:00",6.7,4.7,0.0,0.0,0,1013.5,1,2,"",87
"2019-05-04 01:16:00",6.7,4.7,0.0,0.0,0,1013.4,0,1,"",87
"2019-05-04 01:17:00",6.7,4.5,0.0,0.0,0,1013.4,1,2,"",86
"2019-05-04 01:18:00",6.7,4.7,0.0,0.0,0,1013.4,0,1,"",87
"2019-05-04 01:19:00",6.8,4.8,0.0,0.0,0,1013.5,0,0,"",87
"2019-05-04 01:20:00",6.7,4.9,0.0,0.0,0,1013.4,1,1,"",88
"2019-05-04 01:21:00",6.7,4.9,0.0,0.0,0,1013.5,0,1,"",88
"2019-05-04 01:22:00",6.7,4.7,0.0,0.0,0,1013.5,0,1,"",87
"2019-05-04 01:23:00",6.7,4.7,0.0,0.0,0,1013.5,2,3,"",87
"2019-05-04 01:24:00",6.7,4.7,0.0,0.0,0,1013.5,2,3,"",87
"2019-05-04 01:25:00",6.7,4.7,0.0,0.0,0,1013.4,1,2,"",87
"2019-05-04 01:26:00",6.7,4.9,0.0,0.0,0,1013.5,1,2,"",88
"2019-05-04 01:27:00",6.7,4.9,0.0,0.0,0,1013.5,0,1,"",88
"2019-05-04 01:28:00",6.7,4.9,0.0,0.0,0,1013.5,0,2,"",88
"2019-05-04 01:29:00",6.7,4.9,0.0,0.0,0,1013.4,1,2,"",88
"2019-05-04 01:30:00",6.7,4.9,0.0,0.0,0,1013.4,2,7,4.4,88
"2019-05-04 01:31:00",6.6,4.6,0.0,0.0,0,1013.5,2,4,5.4,87
"2019-05-04 01:32:00",6.7,4.7,0.0,0.0,0,1013.5,2,3,"",87
"2019-05-04 01:33:00",6.7,4.9,0.0,0.0,0,1013.5,0,1,"",88
"2019-05-04 01:34:00",6.7,4.9,0.0,0.0,0,1013.5,1,4,5.5,88
"2019-05-04 01:35:00",6.7,4.9,0.0,0.0,0,1013.5,2,4,5.5,88
"2019-05-04 01:36:00",6.7,4.7,0.0,0.0,0,1013.5,1,2,"",87
"2019-05-04 01:37:00",6.7,4.7,0.0,0.0,0,1013.5,1,2,"",87
"2019-05-04 01:38:00",6.7,4.9,0.0,0.0,0,1013.5,1,3,"",88
"2019-05-04 01:39:00",6.7,4.7,0.0,0.0,0,1013.5,1,2,"",87
"2019-05-04 01:40:00",6.7,4.9,0.0,0.0,0,1013.5,1,3,"",88
"2019-05-04 01:41:00",6.7,4.9,0.0,0.0,0,1013.5,3,5,5.1,88
"2019-05-04 01:42:00",6.7,4.7,0.0,0.0,0,1013.5,1,2,"",87
"2019-05-04 01:43:00",6.7,4.5,0.0,0.0,0,1013.5,0,1,"",86
"2019-05-04 01:44:00",6.7,4.7,0.0,0.0,0,1013.5,2,4,5.5,87
"2019-05-04 01:45:00",6.7,4.5,0.0,0.0,0,1013.4,2,6,4.8,86
"2019-05-04 01:46:00",6.7,4.5,0.0,0.0,0,1013.4,1,2,"",86
"2019-05-04 01:47:00",6.7,4.5,0.0,0.0,0,1013.5,3,6,4.8,86
"2019-05-04 01:48:00",6.7,4.5,0.0,0.0,0,1013.5,2,4,5.5,86
"2019-05-04 01:49:00",6.8,4.8,0.0,0.0,0,1013.5,0,2,"",87
"2019-05-04 01:50:00",6.8,4.8,0.0,0.0,0,1013.5,0,1,"",87
"2019-05-04 01:51:00",6.8,4.6,0.0,0.0,0,1013.5,0,1,"",86
"2019-05-04 01:52:00",6.7,4.5,0.0,0.0,0,1013.5,0,2,"",86
"2019-05-04 01:53:00",6.7,4.7,0.0,0.0,0,1013.5,2,3,"",87
"2019-05-04 01:54:00",6.7,4.5,0.0,0.0,0,1013.6,2,3,"",86
"2019-05-04 01:55:00",6.7,4.7,0.0,0.0,0,1013.6,1,2,"",87
"2019-05-04 01:56:00",6.7,4.7,0.0,0.0,0,1013.6,1,4,5.5,87
"2019-05-04 01:57:00",6.7,4.7,0.0,0.0,0,1013.6,1,2,"",87
"2019-05-04 01:58:00",6.7,4.7,0.0,0.0,0,1013.6,1,2,"",87
"2019-05-04 01:59:00",6.7,4.7,0.0,0.0,0,1013.6,2,4,5.5,87
"2019-05-04 02:00:00",6.6,4.6,0.0,0.0,0,1013.6,1,2,"",87
"2019-05-04 02:01:00",6.6,4.6,0.0,0.0,0,1013.6,1,1,"",87
"2019-05-04 02:02:00",6.6,4.6,0.0,0.0,0,1013.6,1,4,5.4,87
"2019-05-04 02:03:00",6.6,4.4,0.0,0.0,0,1013.6,2,3,"",86
"2019-05-04 02:04:00",6.7,4.7,0.0,0.0,0,1013.7,1,1,"",87
"2019-05-04 02:05:00",6.7,4.7,0.0,0.0,0,1013.7,0,0,"",87
"2019-05-04 02:06:00",6.6,4.6,0.0,0.0,0,1013.7,0,1,"",87
"2019-05-04 02:07:00",6.7,4.7,0.0,0.0,0,1013.7,1,4,5.5,87
"2019-05-04 02:08:00",6.7,4.5,0.0,0.0,0,1013.7,1,3,"",86
"2019-05-04 02:09:00",6.7,4.7,0.0,0.0,0,1013.7,0,1,"",87
"2019-05-04 02:10:00",6.7,4.7,0.0,0.0,0,1013.7,1,2,"",87
"2019-05-04 02:11:00",6.7,4.7,0.0,0.0,0,1013.7,2,3,"",87
"2019-05-04 02:12:00",6.7,4.7,0.0,0.0,0,1013.7,1,3,"",87
"2019-05-04 02:13:00",6.7,4.5,0.0,0.0,0,1013.7,1,2,"",86
"2019-05-04 02:14:00",6.7,4.5,0.0,0.0,0,1013.7,1,2,"",86
"2019-05-04 02:15:00",6.7,4.7,0.0,0.0,0,1013.8,2,4,5.5,87
"2019-05-04 02:16:00",6.7,4.5,0.0,0.0,0,1013.8,2,2,"",86
"2019-05-04 02:17:00",6.7,4.4,0.0,0.0,0,1013.8,2,4,5.5,85
"2019-05-04 02:18:00",6.7,4.4,0.0,0.0,0,1013.8,1,1,"",85
"2019-05-04 02:19:00",6.7,4.4,0.0,0.0,0,1013.8,1,2,"",85
"2019-05-04 02:20:00",6.7,4.5,0.0,0.0,0,1013.8,0,1,"",86
"2019-05-04 02:21:00",6.7,4.7,0.0,0.0,0,1013.8,0,0,"",87
"2019-05-04 02:22:00",6.7,4.7,0.0,0.0,0,1013.8,0,0,"",87
"2019-05-04 02:23:00",6.7,4.7,0.0,0.0,0,1013.8,0,0,"",87
"2019-05-04 02:24:00",6.7,4.7,0.0,0.0,0,1013.8,0,0,"",87
"2019-05-04 02:25:00",6.7,4.5,0.0,0.0,0,1013.8,1,3,"",86
"2019-05-04 02:26:00",6.7,4.5,0.0,0.0,0,1013.8,1,2,"",86
"2019-05-04 02:27:00",6.7,4.5,0.0,0.0,0,1013.8,2,4,5.5,86
"2019-05-04 02:28:00",6.6,4.4,0.0,0.0,0,1013.8,2,4,5.5,86
"2019-05-04 02:29:00",6.6,4.4,0.0,0.0,0,1013.8,2,3,"",86
"2019-05-04 02:30:00",6.7,4.5,0.0,0.0,0,1013.9,2,3,"",86
"2019-05-04 02:31:00",6.6,4.3,0.0,0.0,0,1013.9,2,3,"",85
"2019-05-04 02:32:00",6.7,4.5,0.0,0.0,0,1014.0,3,4,5.4,86
"2019-05-04 02:33:00",6.6,4.4,0.0,0.0,0,1014.0,3,4,5.5,86
"2019-05-04 02:34:00",6.6,4.4,0.0,0.0,0,1014.0,3,6,4.6,86
"2019-05-04 02:35:00",6.5,4.3,0.0,0.0,0,1014.1,2,4,5.3,86
"2019-05-04 02:36:00",6.4,4.4,0.0,0.0,0,1014.1,3,9,3.7,87
"2019-05-04 02:37:00",6.4,4.2,0.0,0.0,0,1014.1,3,3,"",86
"2019-05-04 02:38:00",6.3,4.1,0.0,0.0,0,1014.2,4,7,4.0,86
"2019-05-04 02:39:00",6.3,4.1,0.2,0.0,0,1014.3,4,12,2.8,86
"2019-05-04 02:40:00",6.2,3.9,0.2,0.0,0,1014.2,5,10,3.1,85
"2019-05-04 02:41:00",6.1,3.8,0.2,0.0,0,1014.3,4,7,3.8,85
"2019-05-04 02:42:00",6.0,3.8,0.2,0.0,0,1014.3,3,5,4.3,86
"2019-05-04 02:43:00",5.8,3.5,0.2,0.0,0,1014.4,2,3,"",85
"2019-05-04 02:44:00",5.8,3.6,0.2,0.0,0,1014.3,3,7,3.4,86
"2019-05-04 02:45:00",5.7,3.5,0.2,0.0,0,1014.4,2,3,"",86
"2019-05-04 02:46:00",5.6,3.3,0.2,0.0,0,1014.4,1,4,4.3,85
"2019-05-04 02:47:00",5.5,3.3,0.2,0.0,0,1014.4,2,3,"",86
"2019-05-04 02:48:00",5.4,3.2,0.2,0.0,0,1014.4,3,3,"",86
"2019-05-04 02:49:00",5.3,3.1,0.2,0.0,0,1014.4,2,3,"",86
"2019-05-04 02:50:00",5.3,3.3,0.2,0.0,0,1014.5,1,2,"",87
"2019-05-04 02:51:00",5.3,3.3,0.2,0.0,0,1014.4,2,4,3.9,87
"2019-05-04 02:52:00",5.3,3.5,0.2,0.0,0,1014.4,3,6,3.1,88
"2019-05-04 02:53:00",5.2,3.2,0.2,0.0,0,1014.5,1,2,"",87
"2019-05-04 02:54:00",5.2,3.2,0.2,0.0,0,1014.4,1,2,"",87
"2019-05-04 02:55:00",5.2,3.2,0.2,0.0,0,1014.4,2,3,"",87
"2019-05-04 02:56:00",5.2,3.2,0.2,0.0,0,1014.4,1,1,"",87
"2019-05-04 02:57:00",5.2,3.4,0.2,0.0,0,1014.4,1,2,"",88
"2019-05-04 02:58:00",5.2,3.4,0.2,0.0,0,1014.4,0,1,"",88
"2019-05-04 02:59:00",5.1,3.3,0.2,0.0,0,1014.4,0,0,"",88
"2019-05-04 03:00:00",5.1,3.3,0.2,0.0,0,1014.4,0,0,"",88
"2019-05-04 03:01:00",5.1,3.4,0.2,0.0,0,1014.4,0,1,"",89
"2019-05-04 03:02:00",5.1,3.4,0.2,0.0,0,1014.4,0,1,"",89
"2019-05-04 03:03:00",5.0,3.3,0.2,0.0,0,1014.4,0,0,"",89
"2019-05-04 03:04:00",5.0,3.3,0.2,0.0,0,1014.4,0,1,"",89
"2019-05-04 03:05:00",5.0,3.3,0.2,0.0,0,1014.4,0,0,"",89
"2019-05-04 03:06:00",5.0,3.3,0.2,0.0,0,1014.4,0,1,"",89
"2019-05-04 03:07:00",4.9,3.2,0.2,0.0,0,1014.4,0,1,"",89
"2019-05-04 03:08:00",4.9,3.4,0.2,0.0,0,1014.4,0,1,"",90
"2019-05-04 03:09:00",4.9,3.4,0.2,0.0,0,1014.4,1,1,"",90
"2019-05-04 03:10:00",4.9,3.4,0.2,0.0,0,1014.4,0,0,"",90
"2019-05-04 03:11:00",4.9,3.4,0.2,0.0,0,1014.4,0,1,"",90
"2019-05-04 03:12:00",5.0,3.7,0.2,0.0,0,1014.4,0,0,"",91
"2019-05-04 03:13:00",5.0,3.7,0.4,0.0,0,1014.4,0,0,"",91
"2019-05-04 03:14:00",4.9,3.6,0.4,0.0,0,1014.4,0,0,"",91
"2019-05-04 03:15:00",4.9,3.6,0.4,0.0,0,1014.4,0,0,"",91
"2019-05-04 03:16:00",4.9,3.6,0.4,0.0,0,1014.4,0,0,"",91
"2019-05-04 03:17:00",4.9,3.6,0.4,0.0,0,1014.4,0,0,"",91
"2019-05-04 03:18:00",4.9,3.6,0.4,0.0,0,1014.4,0,0,"",91
"2019-05-04 03:19:00",4.9,3.6,0.4,0.0,0,1014.4,0,0,"",91
"2019-05-04 03:20:00",4.8,3.5,0.4,0.0,0,1014.4,0,0,"",91
"2019-05-04 03:21:00",4.8,3.5,0.4,0.0,0,1014.4,0,0,"",91
"2019-05-04 03:22:00",4.8,3.5,0.4,0.0,0,1014.4,0,0,"",91
"2019-05-04 03:23:00",4.8,3.5,0.4,0.0,0,1014.4,0,0,"",91
"2019-05-04 03:24:00",4.8,3.5,0.4,0.0,0,1014.4,0,0,"",91
"2019-05-04 03:25:00",4.8,3.6,0.4,0.0,0,1014.4,0,0,"",92
"2019-05-04 03:26:00",4.8,3.6,0.4,0.0,0,1014.4,0,0,"",92
"2019-05-04 03:27:00",4.9,3.7,0.4,0.0,0,1014.4,0,0,"",92
"2019-05-04 03:28:00",4.9,3.7,0.4,0.0,0,1014.4,0,0,"",92
"2019-05-04 03:29:00",4.9,3.7,0.4,0.0,0,1014.4,0,0,"",92
"2019-05-04 03:30:00",4.8,3.6,0.4,0.0,0,1014.4,0,0,"",92
"2019-05-04 03:31:00",4.8,3.6,0.4,0.0,0,1014.4,0,0,"",92
"2019-05-04 03:32:00",4.8,3.6,0.4,0.0,0,1014.4,0,1,"",92
"2019-05-04 03:33:00",4.8,3.6,0.4,0.0,0,1014.4,1,2,"",92
"2019-05-04 03:34:00",4.9,3.7,0.4,0.0,0,1014.4,2,4,3.5,92
"2019-05-04 03:35:00",4.9,3.7,0.4,0.0,0,1014.4,2,3,"",92
"2019-05-04 03:36:00",4.9,3.7,0.4,0.0,0,1014.4,1,3,"",92
"2019-05-04 03:37:00",4.9,3.7,0.4,0.0,0,1014.4,0,1,"",92
"2019-05-04 03:38:00",4.9,3.7,0.4,0.0,0,1014.3,1,2,"",92
"2019-05-04 03:39:00",4.9,3.6,0.4,0.0,0,1014.4,1,2,"",91
"2019-05-04 03:40:00",4.9,3.6,0.4,0.0,0,1014.3,0,1,"",91
"2019-05-04 03:41:00",4.8,3.5,0.4,0.0,0,1014.4,0,0,"",91
"2019-05-04 03:42:00",4.8,3.5,0.4,0.0,0,1014.4,1,1,"",91
"2019-05-04 03:43:00",4.8,3.5,0.4,0.0,0,1014.4,1,2,"",91
"2019-05-04 03:44:00",4.8,3.6,0.4,0.0,0,1014.3,0,1,"",92
"2019-05-04 03:45:00",4.8,3.5,0.4,0.0,0,1014.4,1,1,"",91
"2019-05-04 03:46:00",4.8,3.5,0.4,0.0,0,1014.3,1,1,"",91
"2019-05-04 03:47:00",4.8,3.6,0.4,0.0,0,1014.4,0,1,"",92
"2019-05-04 03:48:00",4.8,3.6,0.4,0.0,0,1014.4,1,2,"",92
"2019-05-04 03:49:00",4.8,3.6,0.6,0.0,0,1014.4,0,0,"",92
"2019-05-04 03:50:00",4.8,3.6,0.6,0.0,0,1014.4,0,0,"",92
"2019-05-04 03:51:00",4.8,3.6,0.6,0.0,0,1014.4,0,0,"",92
"2019-05-04 03:52:00",4.8,3.6,0.6,0.0,0,1014.4,0,0,"",92
"2019-05-04 03:53:00",4.7,3.5,0.6,0.0,0,1014.4,0,0,"",92
"2019-05-04 03:54:00",4.7,3.5,0.6,0.0,0,1014.4,0,0,"",92
"2019-05-04 03:55:00",4.7,3.5,0.6,0.0,0,1014.4,0,0,"",92
"2019-05-04 03:56:00",4.7,3.5,0.6,0.0,0,1014.4,0,0,"",92
"2019-05-04 03:57:00",4.7,3.5,0.6,0.0,0,1014.4,0,0,"",92
"2019-05-04 03:58:00",4.7,3.5,0.6,0.0,0,1014.4,0,0,"",92
"2019-05-04 03:59:00",4.7,3.5,0.6,0.0,0,1014.4,0,0,"",92
"2019-05-04 04:00:00",4.7,3.5,0.6,0.0,0,1014.4,0,0,"",92
"2019-05-04 04:01:00",4.7,3.5,0.6,0.0,0,1014.3,0,0,"",92
"2019-05-04 04:02:00",4.7,3.5,0.6,0.0,0,1014.3,0,0,"",92
"2019-05-04 04:03:00",4.6,3.4,0.6,0.0,0,1014.3,0,0,"",92
"2019-05-04 04:04:00",4.6,3.4,0.6,0.0,0,1014.3,0,0,"",92
"2019-05-04 04:05:00",4.6,3.4,0.6,0.0,0,1014.2,0,0,"",92
"2019-05-04 04:06:00",4.6,3.4,0.6,0.0,0,1014.2,0,0,"",92
"2019-05-04 04:07:00",4.7,3.5,0.6,0.0,0,1014.2,0,0,"",92
"2019-05-04 04:08:00",4.7,3.5,0.6,0.0,0,1014.2,0,0,"",92
"2019-05-04 04:09:00",4.7,3.5,0.6,0.0,0,1014.1,0,0,"",92
"2019-05-04 04:10:00",4.7,3.5,0.6,0.0,0,1014.1,0,0,"",92
"2019-05-04 04:11:00",4.7,3.5,0.6,0.0,0,1014.1,0,0,"",92
"2019-05-04 04:12:00",4.6,3.4,0.6,0.0,0,1014.1,0,0,"",92
"2019-05-04 04:13:00",4.6,3.4,0.6,0.0,0,1014.1,0,0,"",92
"2019-05-04 04:14:00",4.7,3.7,0.6,0.0,0,1014.1,0,0,"",93
"2019-05-04 04:15:00",4.7,3.7,0.6,0.0,0,1014.0,0,0,"",93
"2019-05-04 04:16:00",4.7,3.5,0.6,0.0,0,1014.1,0,0,"",92
"2019-05-04 04:17:00",4.7,3.5,0.6,0.0,0,1014.0,0,0,"",92
"2019-05-04 04:18:00",4.7,3.7,0.6,0.0,0,1014.0,0,0,"",93
"2019-05-04 04:19:00",4.7,3.7,0.6,0.0,0,1014.0,0,0,"",93
"2019-05-04 04:20:00",4.7,3.5,0.6,0.0,0,1014.1,0,0,"",92
"2019-05-04 04:21:00",4.7,3.5,0.6,0.0,0,1014.1,0,0,"",92
"2019-05-04 04:22:00",4.6,3.4,0.6,0.0,0,1014.0,0,0,"",92
"2019-05-04 04:23:00",4.6,3.4,0.6,0.0,0,1014.1,0,0,"",92
"2019-05-04 04:24:00",4.6,3.6,0.6,0.0,0,1014.1,0,0,"",93
"2019-05-04 04:25:00",4.6,3.6,0.6,0.0,0,1014.1,0,0,"",93
"2019-05-04 04:26:00",4.6,3.6,0.6,0.0,0,1014.1,0,0,"",93
"2019-05-04 04:27:00",4.6,3.4,0.6,0.0,0,1014.0,0,0,"",92
"2019-05-04 04:28:00",4.6,3.6,0.6,0.0,0,1014.1,0,0,"",93
"2019-05-04 04:29:00",4.6,3.4,0.6,0.0,0,1014.1,0,0,"",92
"2019-05-04 04:30:00",4.6,3.6,0.6,0.0,0,1014.1,0,0,"",93
"2019-05-04 04:31:00",4.6,3.4,0.6,0.0,0,1014.0,0,0,"",92
"2019-05-04 04:32:00",4.6,3.4,0.6,0.0,0,1014.0,0,0,"",92
"2019-05-04 04:33:00",4.6,3.4,0.6,0.0,0,1014.0,0,0,"",92
"2019-05-04 04:34:00",4.6,3.4,0.6,0.0,0,1014.0,0,0,"",92
"2019-05-04 04:35:00",4.6,3.6,0.6,0.0,0,1014.1,0,0,"",93
"2019-05-04 04:36:00",4.6,3.4,0.6,0.0,0,1014.0,0,0,"",92
"2019-05-04 04:37:00",4.6,3.4,0.6,0.0,0,1014.0,0,0,"",92
"2019-05-04 04:38:00",4.6,3.4,0.6,0.0,0,1014.0,0,0,"",92
"2019-05-04 04:39:00",4.6,3.4,0.6,0.0,0,1014.0,0,0,"",92
"2019-05-04 04:40:00",4.6,3.4,0.6,0.0,0,1014.0,0,0,"",92
"2019-05-04 04:41:00",4.6,3.4,0.6,0.0,0,1014.0,0,0,"",92
"2019-05-04 04:42:00",4.6,3.4,0.6,0.0,0,1014.0,0,0,"",92
"2019-05-04 04:43:00",4.6,3.6,0.6,0.0,0,1014.1,0,0,"",93
"2019-05-04 04:44:00",4.6,3.6,0.6,0.0,0,1014.1,0,0,"",93
"2019-05-04 04:45:00",4.6,3.6,0.6,0.0,0,1014.1,0,0,"",93
"2019-05-04 04:46:00",4.6,3.4,0.6,0.0,0,1014.1,0,0,"",92
"2019-05-04 04:47:00",4.6,3.4,0.6,0.0,0,1014.1,0,0,"",92
"2019-05-04 04:48:00",4.5,3.3,0.6,0.0,0,1014.1,0,0,"",92
"2019-05-04 04:49:00",4.5,3.3,0.6,0.0,0,1014.1,0,0,"",92
"2019-05-04 04:50:00",4.5,3.3,0.6,0.0,0,1014.1,0,0,"",92
"2019-05-04 04:51:00",4.5,3.3,0.6,0.0,0,1014.1,0,0,"",92
"2019-05-04 04:52:00",4.5,3.3,0.6,0.0,0,1014.2,0,0,"",92
"2019-05-04 04:53:00",4.4,3.2,0.6,0.0,0,1014.2,0,0,"",92
"2019-05-04 04:54:00",4.4,3.2,0.6,0.0,0,1014.2,0,0,"",92
"2019-05-04 04:55:00",4.4,3.4,0.6,0.0,0,1014.2,0,0,"",93
"2019-05-04 04:56:00",4.4,3.4,0.6,0.0,0,1014.2,0,0,"",93
"2019-05-04 04:57:00",4.4,3.4,0.6,0.0,0,1014.2,0,0,"",93
"2019-05-04 04:58:00",4.4,3.4,0.6,0.0,0,1014.2,0,0,"",93
"2019-05-04 04:59:00",4.4,3.4,0.6,0.0,0,1014.2,0,0,"",93
"2019-05-04 05:00:00",4.4,3.4,0.6,0.0,0,1014.3,0,0,"",93
"2019-05-04 05:01:00",4.4,3.4,0.6,0.0,0,1014.3,0,0,"",93
"2019-05-04 05:02:00",4.4,3.4,0.6,0.0,0,1014.3,0,0,"",93
"2019-05-04 05:03:00",4.4,3.4,0.6,0.0,0,1014.3,0,0,"",93
"2019-05-04 05:04:00",4.4,3.4,0.6,0.0,0,1014.3,0,0,"",93
"2019-05-04 05:05:00",4.4,3.4,0.6,0.0,0,1014.3,0,0,"",93
"2019-05-04 05:06:00",4.4,3.4,0.6,0.0,0,1014.2,0,0,"",93
"2019-05-04 05:07:00",4.4,3.4,0.6,0.0,0,1014.2,0,0,"",93
"2019-05-04 05:08:00",4.4,3.4,0.6,0.0,0,1014.3,0,0,"",93
"2019-05-04 05:09:00",4.4,3.4,0.6,0.0,0,1014.2,0,0,"",93
"2019-05-04 05:10:00",4.4,3.4,0.6,0.0,0,1014.3,0,0,"",93
"2019-05-04 05:11:00",4.4,3.4,0.6,0.0,0,1014.3,0,0,"",93
"2019-05-04 05:12:00",4.4,3.4,0.6,0.0,0,1014.3,0,0,"",93
"2019-05-04 05:13:00",4.4,3.4,0.6,0.0,0,1014.4,0,1,"",93
"2019-05-04 05:14:00",4.4,3.4,0.6,0.0,0,1014.3,0,0,"",93
"2019-05-04 05:15:00",4.4,3.4,0.6,0.0,0,1014.4,0,0,"",93
"2019-05-04 05:16:00",4.4,3.4,0.6,0.0,0,1014.3,0,0,"",93
"2019-05-04 05:17:00",4.4,3.4,0.6,0.0,0,1014.3,0,0,"",93
"2019-05-04 05:18:00",4.3,3.3,0.6,0.0,0,1014.4,0,0,"",93
"2019-05-04 05:19:00",4.3,3.3,0.6,0.0,0,1014.4,0,0,"",93
"2019-05-04 05:20:00",4.4,3.4,0.6,0.0,0,1014.4,0,0,"",93
"2019-05-04 05:21:00",4.4,3.4,0.6,0.0,0,1014.3,0,0,"",93
"2019-05-04 05:22:00",4.4,3.4,0.6,0.0,0,1014.4,0,0,"",93
"2019-05-04 05:23:00",4.4,3.4,0.6,0.0,0,1014.4,0,0,"",93
"2019-05-04 05:24:00",4.4,3.4,0.6,0.0,0,1014.4,0,0,"",93
"2019-05-04 05:25:00",4.4,3.4,0.6,0.0,0,1014.4,0,0,"",93
"2019-05-04 05:26:00",4.4,3.4,0.6,0.0,0,1014.4,0,0,"",93
"2019-05-04 05:27:00",4.4,3.4,0.6,0.0,0,1014.4,0,0,"",93
"2019-05-04 05:28:00",4.4,3.4,0.6,0.0,0,1014.5,0,0,"",93
"2019-05-04 05:29:00",4.4,3.4,0.6,0.0,0,1014.5,0,0,"",93
"2019-05-04 05:30:00",4.4,3.4,0.6,0.0,0,1014.5,0,0,"",93
"2019-05-04 05:31:00",4.3,3.3,0.6,0.0,0,1014.5,0,0,"",93
"2019-05-04 05:32:00",4.3,3.3,0.6,0.0,0,1014.5,0,0,"",93
"2019-05-04 05:33:00",4.4,3.4,0.6,0.0,0,1014.5,0,0,"",93
"2019-05-04 05:34:00",4.3,3.3,0.6,0.0,0,1014.5,0,0,"",93
"2019-05-04 05:35:00",4.3,3.3,0.6,0.0,0,1014.5,0,0,"",93
"2019-05-04 05:36:00",4.3,3.1,0.6,0.0,0,1014.5,0,0,"",92
"2019-05-04 05:37:00",4.3,3.1,0.6,0.0,0,1014.5,0,0,"",92
"2019-05-04 05:38:00",4.3,3.1,0.6,0.0,0,1014.5,0,0,"",92
"2019-05-04 05:39:00",4.3,3.1,0.6,0.0,0,1014.5,0,1,"",92
"2019-05-04 05:40:00",4.3,3.1,0.6,0.0,0,1014.5,0,0,"",92
"2019-05-04 05:41:00",4.3,3.3,0.6,0.0,0,1014.5,0,1,"",93
"2019-05-04 05:42:00",4.3,3.3,0.6,0.0,5,1014.5,0,0,"",93
"2019-05-04 05:43:00",4.3,3.3,0.6,0.0,5,1014.5,0,0,"",93
"2019-05-04 05:44:00",4.3,3.3,0.6,0.0,5,1014.6,0,0,"",93
"2019-05-04 05:45:00",4.3,3.1,0.6,0.0,5,1014.6,0,0,"",92
"2019-05-04 05:46:00",4.3,3.1,0.6,0.0,7,1014.6,0,0,"",92
"2019-05-04 05:47:00",4.3,3.1,0.6,0.0,7,1014.6,0,0,"",92
"2019-05-04 05:48:00",4.2,3.0,0.6,0.0,7,1014.6,0,0,"",92
"2019-05-04 05:49:00",4.2,3.0,0.6,0.0,7,1014.6,0,0,"",92
"2019-05-04 05:50:00",4.2,3.0,0.6,0.0,9,1014.6,0,0,"",92
"2019-05-04 05:51:00",4.2,3.0,0.6,0.0,9,1014.7,0,0,"",92
"2019-05-04 05:52:00",4.2,3.0,0.6,0.0,9,1014.6,0,0,"",92
"2019-05-04 05:53:00",4.2,3.0,0.6,0.0,9,1014.6,0,0,"",92
"2019-05-04 05:54:00",4.2,3.0,0.6,0.0,9,1014.6,0,0,"",92
"2019-05-04 05:55:00",4.2,3.0,0.6,0.0,9,1014.6,0,0,"",92
"2019-05-04 05:56:00",4.2,3.0,0.6,0.0,9,1014.6,0,0,"",92
"2019-05-04 05:57:00",4.2,3.0,0.6,0.0,9,1014.7,0,0,"",92
"2019-05-04 05:58:00",4.2,3.0,0.6,0.0,9,1014.7,0,0,"",92
"2019-05-04 05:59:00",4.1,2.9,0.6,0.0,9,1014.7,0,1,"",92
"2019-05-04 06:00:00",4.2,3.0,0.6,0.0,9,1014.7,0,1,"",92
"2019-05-04 06:01:00",4.2,3.0,0.6,0.0,9,1014.7,0,1,"",92
"2019-05-04 06:02:00",4.2,3.2,0.6,0.0,11,1014.7,0,0,"",93
"2019-05-04 06:03:00",4.2,3.2,0.6,0.0,11,1014.7,0,1,"",93
"2019-05-04 06:04:00",4.2,3.0,0.6,0.0,12,1014.7,0,1,"",92
"2019-05-04 06:05:00",4.2,3.0,0.6,0.0,12,1014.7,0,0,"",92
"2019-05-04 06:06:00",4.2,3.0,0.6,0.0,14,1014.7,0,1,"",92
"2019-05-04 06:07:00",4.2,3.0,0.6,0.0,14,1014.7,0,2,"",92
"2019-05-04 06:08:00",4.2,3.0,0.6,0.0,16,1014.7,0,1,"",92
"2019-05-04 06:09:00",4.2,3.0,0.6,0.0,16,1014.7,1,2,"",92
"2019-05-04 06:10:00",4.2,3.2,0.6,0.0,16,1014.8,0,0,"",93
"2019-05-04 06:11:00",4.2,3.0,0.6,0.0,18,1014.8,0,0,"",92
"2019-05-04 06:12:00",4.2,3.2,0.6,0.0,18,1014.8,0,0,"",93
"2019-05-04 06:13:00",4.2,3.0,0.6,0.0,16,1014.8,0,0,"",92
"2019-05-04 06:14:00",4.2,3.0,0.6,0.0,16,1014.9,0,2,"",92
"2019-05-04 06:15:00",4.2,3.0,0.6,0.0,16,1014.9,0,2,"",92
"2019-05-04 06:16:00",4.2,3.0,0.6,0.0,16,1014.9,1,2,"",92
"2019-05-04 06:17:00",4.2,3.0,0.6,0.0,16,1014.9,0,1,"",92
"2019-05-04 06:18:00",4.2,3.0,0.6,0.0,18,1014.9,0,2,"",92
"2019-05-04 06:19:00",4.2,3.0,0.6,0.0,19,1014.9,1,2,"",92
"2019-05-04 06:20:00",4.3,3.3,0.6,0.0,19,1014.9,0,0,"",93
"2019-05-04 06:21:00",4.3,3.1,0.6,0.0,19,1014.9,1,2,"",92
"2019-05-04 06:22:00",4.3,3.1,0.6,0.0,21,1015.0,0,1,"",92
"2019-05-04 06:23:00",4.2,3.0,0.6,0.0,21,1015.0,0,1,"",92
"2019-05-04 06:24:00",4.2,3.0,0.6,0.0,21,1014.9,0,0,"",92
"2019-05-04 06:25:00",4.2,3.0,0.6,0.0,21,1015.0,0,1,"",92
"2019-05-04 06:26:00",4.2,3.0,0.6,0.0,21,1015.0,1,2,"",92
"2019-05-04 06:27:00",4.3,3.1,0.6,0.0,23,1015.0,0,1,"",92
"2019-05-04 06:28:00",4.3,3.1,0.6,0.0,23,1015.1,0,0,"",92
"2019-05-04 06:29:00",4.3,3.1,0.6,0.0,23,1015.1,0,0,"",92
"2019-05-04 06:30:00",4.3,3.1,0.6,0.0,25,1015.1,0,0,"",92
"2019-05-04 06:31:00",4.3,3.1,0.6,0.0,25,1015.1,0,1,"",92
"2019-05-04 06:32:00",4.3,3.1,0.6,0.0,25,1015.1,0,1,"",92
"2019-05-04 06:33:00",4.3,3.1,0.6,0.0,25,1015.1,0,0,"",92
"2019-05-04 06:34:00",4.3,3.1,0.6,0.0,25,1015.1,0,1,"",92
"2019-05-04 06:35:00",4.3,3.1,0.6,0.0,25,1015.1,0,0,"",92
"2019-05-04 06:36:00",4.3,3.1,0.6,0.0,33,1015.2,0,2,"",92
"2019-05-04 06:37:00",4.3,3.1,0.6,0.0,32,1015.2,1,1,"",92
"2019-05-04 06:38:00",4.4,3.2,0.6,0.0,30,1015.2,0,0,"",92
"2019-05-04 06:39:00",4.4,3.2,0.6,0.0,30,1015.2,0,0,"",92
"2019-05-04 06:40:00",4.4,3.2,0.6,0.0,33,1015.2,1,2,"",92
"2019-05-04 06:41:00",4.4,3.2,0.6,0.0,35,1015.3,0,1,"",92
"2019-05-04 06:42:00",4.4,3.2,0.6,0.0,37,1015.2,0,1,"",92
"2019-05-04 06:43:00",4.4,3.2,0.6,0.0,39,1015.3,0,2,"",92
"2019-05-04 06:44:00",4.5,3.3,0.6,0.0,40,1015.2,2,3,"",92
"2019-05-04 06:45:00",4.5,3.3,0.6,0.0,42,1015.3,1,2,"",92
"2019-05-04 06:46:00",4.5,3.3,0.6,0.0,44,1015.3,0,1,"",92
"2019-05-04 06:47:00",4.6,3.4,0.6,0.0,44,1015.2,0,1,"",92
"2019-05-04 06:48:00",4.6,3.4,0.6,0.0,46,1015.3,1,2,"",92
"2019-05-04 06:49:00",4.7,3.4,0.6,0.0,51,1015.3,1,2,"",91
"2019-05-04 06:50:00",4.7,3.4,0.6,0.0,53,1015.3,1,2,"",91
"2019-05-04 06:51:00",4.7,3.5,0.6,0.0,53,1015.3,1,3,"",92
"2019-05-04 06:52:00",4.8,3.6,0.6,0.0,56,1015.4,1,3,"",92
"2019-05-04 06:53:00",4.8,3.5,0.6,0.0,56,1015.3,1,2,"",91
"2019-05-04 06:54:00",4.8,3.5,0.6,0.0,58,1015.4,0,2,"",91
"2019-05-04 06:55:00",4.8,3.5,0.6,0.0,58,1015.4,0,1,"",91
"2019-05-04 06:56:00",4.9,3.6,0.6,0.0,58,1015.4,0,0,"",91